TAM4478 SBSL-SBIZ

Flight info

Callsign TAM4478
Flight time N/A
Altitude 32000
Route SATPU DCT IREGI DCT BUTRI
Aircraft A20N/M-SDE2E3FGHIRWXY/LB1

Departure

Time 2026-04-26 02:16
Airport Marechal Cunha Machado International Airport (SBSL)

Arrival

Time N/A
Airport Prefeito Renato Moreira Airport (SBIZ)
Time Latitude Longitude Altitude Speed Heading
2026-04-26 02:06 -2.58425 -44.23608 153 ft 0 kts 340°
2026-04-26 02:08 -2.58438 -44.23603 153 ft 2 kts 349°
2026-04-26 02:09 -2.58446 -44.23603 153 ft 2 kts
2026-04-26 02:09 -2.58461 -44.23607 153 ft 2 kts 29°
2026-04-26 02:09 -2.58473 -44.23616 154 ft 2 kts 53°
2026-04-26 02:10 -2.58478 -44.23624 154 ft 0 kts 68°
2026-04-26 02:10 -2.58480 -44.23631 154 ft 0 kts 70°
2026-04-26 02:14 -2.58479 -44.23630 154 ft 1 kts 70°
2026-04-26 02:14 -2.58461 -44.23581 152 ft 12 kts 70°
2026-04-26 02:15 -2.58443 -44.23532 150 ft 15 kts 69°
2026-04-26 02:15 -2.58440 -44.23471 148 ft 17 kts 103°
2026-04-26 02:15 -2.58531 -44.23396 145 ft 19 kts 207°
2026-04-26 02:15 -2.58792 -44.23596 151 ft 89 kts 215°
2026-04-26 02:16 -2.59489 -44.24160 172 ft 164 kts 219°
2026-04-26 02:16 -2.60447 -44.24969 561 ft 192 kts 221°
2026-04-26 02:16 -2.61465 -44.25904 1382 ft 203 kts 224°
2026-04-26 02:16 -2.62220 -44.27031 2280 ft 200 kts 252°
2026-04-26 02:17 -2.62559 -44.28428 2769 ft 214 kts 253°
2026-04-26 02:17 -2.63386 -44.29665 3309 ft 222 kts 220°
2026-04-26 02:17 -2.64613 -44.30598 4017 ft 222 kts 214°
2026-04-26 02:17 -2.65841 -44.31528 4708 ft 224 kts 216°
2026-04-26 02:18 -2.67021 -44.32536 5397 ft 225 kts 219°
2026-04-26 02:18 -2.68158 -44.33612 6077 ft 227 kts 221°
2026-04-26 02:18 -2.69265 -44.34732 6717 ft 229 kts 223°
2026-04-26 02:18 -2.70417 -44.35939 7081 ft 249 kts 224°
2026-04-26 02:19 -2.71637 -44.37251 7528 ft 267 kts 225°
2026-04-26 02:19 -2.72938 -44.38670 7971 ft 285 kts 225°
2026-04-26 02:19 -2.74314 -44.40184 8385 ft 303 kts 225°
2026-04-26 02:19 -2.75778 -44.41799 8766 ft 321 kts 225°
2026-04-26 02:20 -2.77311 -44.43497 9281 ft 333 kts 226°
2026-04-26 02:20 -2.78864 -44.45220 9993 ft 336 kts 226°
2026-04-26 02:20 -2.80435 -44.46962 10707 ft 339 kts 226°
2026-04-26 02:20 -2.82010 -44.48708 11376 ft 343 kts 225°
2026-04-26 02:21 -2.83613 -44.50485 12029 ft 347 kts 226°
2026-04-26 02:21 -2.85240 -44.52287 12683 ft 350 kts 226°
2026-04-26 02:21 -2.86886 -44.54112 13293 ft 354 kts 226°
2026-04-26 02:21 -2.88527 -44.55929 13881 ft 357 kts 226°
2026-04-26 02:22 -2.90190 -44.57772 14469 ft 360 kts 226°
2026-04-26 02:22 -2.91879 -44.59645 15030 ft 364 kts 226°
2026-04-26 02:22 -2.93575 -44.61523 15584 ft 367 kts 226°
2026-04-26 02:22 -2.95290 -44.63425 16110 ft 370 kts 226°
2026-04-26 02:23 -2.97038 -44.65364 16627 ft 373 kts 226°
2026-04-26 02:23 -2.98768 -44.67292 17125 ft 376 kts 227°
2026-04-26 02:23 -3.00531 -44.69259 17616 ft 379 kts 226°
2026-04-26 02:23 -3.02284 -44.71193 18088 ft 381 kts 225°
2026-04-26 02:24 -3.04218 -44.73047 18564 ft 383 kts 219°
2026-04-26 02:24 -3.06322 -44.74690 19026 ft 384 kts 213°
2026-04-26 02:24 -3.08535 -44.76160 19476 ft 385 kts 211°
2026-04-26 02:24 -3.10802 -44.77611 19903 ft 388 kts 211°
2026-04-26 02:25 -3.13090 -44.79063 20337 ft 390 kts 211°
2026-04-26 02:25 -3.15408 -44.80541 20757 ft 392 kts 211°
2026-04-26 02:25 -3.17690 -44.82000 21162 ft 395 kts 211°
2026-04-26 02:25 -3.20033 -44.83505 21573 ft 397 kts 212°
2026-04-26 02:26 -3.22347 -44.84995 21968 ft 399 kts 212°
2026-04-26 02:26 -3.24699 -44.86511 22359 ft 401 kts 212°
2026-04-26 02:26 -3.27034 -44.88018 22745 ft 403 kts 212°
2026-04-26 02:26 -3.29411 -44.89552 23121 ft 405 kts 212°
2026-04-26 02:27 -3.31777 -44.91079 23487 ft 407 kts 212°
2026-04-26 02:27 -3.34185 -44.92634 23936 ft 407 kts 212°
2026-04-26 02:27 -3.36542 -44.94157 24568 ft 402 kts 212°
2026-04-26 02:27 -3.37383 -44.94700 24795 ft 401 kts 212°
2026-04-26 02:28 -3.39765 -44.96239 25430 ft 396 kts 212°
2026-04-26 02:28 -3.42062 -44.97722 26060 ft 391 kts 212°
2026-04-26 02:29 -3.44321 -44.99180 26665 ft 387 kts 212°
2026-04-26 02:29 -3.46605 -45.00656 26896 ft 395 kts 212°
2026-04-26 02:29 -3.48950 -45.02171 27088 ft 404 kts 212°
2026-04-26 02:29 -3.51355 -45.03726 27277 ft 413 kts 212°
2026-04-26 02:30 -3.53815 -45.05317 27464 ft 422 kts 211°
2026-04-26 02:30 -3.56288 -45.06916 27660 ft 431 kts 212°
2026-04-26 02:30 -3.58766 -45.08699 27832 ft 440 kts 217°
2026-04-26 02:30 -3.61091 -45.10752 28060 ft 447 kts 224°
2026-04-26 02:31 -3.63195 -45.13033 28483 ft 449 kts 229°
2026-04-26 02:31 -3.65200 -45.15434 28978 ft 448 kts 230°
2026-04-26 02:31 -3.67149 -45.17813 29520 ft 447 kts 230°
2026-04-26 02:31 -3.69113 -45.20213 30104 ft 444 kts 230°
2026-04-26 02:32 -3.71079 -45.22611 30644 ft 443 kts 229°
2026-04-26 02:32 -3.73052 -45.25007 31085 ft 445 kts 229°
2026-04-26 02:32 -3.75013 -45.27381 31505 ft 447 kts 229°
2026-04-26 02:32 -3.76989 -45.29771 31862 ft 449 kts 229°
2026-04-26 02:33 -3.78988 -45.32190 31911 ft 447 kts 229°
2026-04-26 02:33 -3.80952 -45.34565 31914 ft 431 kts 229°
2026-04-26 02:33 -3.82814 -45.36818 31916 ft 416 kts 229°
2026-04-26 02:33 -3.84619 -45.39001 31916 ft 401 kts 229°
2026-04-26 02:34 -3.86374 -45.41124 31919 ft 391 kts 229°
2026-04-26 02:34 -3.89835 -45.45305 31925 ft 389 kts 229°
2026-04-26 02:34 -3.91542 -45.47368 31917 ft 377 kts 229°
2026-04-26 02:35 -3.93208 -45.49382 31922 ft 372 kts 229°
2026-04-26 02:35 -3.96510 -45.53375 31926 ft 372 kts 229°
2026-04-26 02:36 -3.99808 -45.57360 31926 ft 372 kts 229°
2026-04-26 02:36 -4.03092 -45.61332 31926 ft 372 kts 229°
2026-04-26 02:37 -4.06384 -45.65315 31925 ft 372 kts 229°
2026-04-26 02:37 -4.09687 -45.69340 31927 ft 372 kts 229°
2026-04-26 02:38 -4.12983 -45.73319 31923 ft 372 kts 229°
2026-04-26 02:38 -4.16303 -45.77318 31925 ft 371 kts 229°
2026-04-26 02:39 -4.19592 -45.81294 31927 ft 371 kts 229°
2026-04-26 02:39 -4.22883 -45.85275 31641 ft 370 kts 229°
2026-04-26 02:39 -4.24512 -45.87248 31474 ft 369 kts 229°
2026-04-26 02:40 -4.26165 -45.89250 31273 ft 369 kts 229°
2026-04-26 02:40 -4.27790 -45.91219 31076 ft 368 kts 229°
2026-04-26 02:40 -4.29415 -45.93187 30746 ft 365 kts 229°
2026-04-26 02:40 -4.31027 -45.95139 30304 ft 364 kts 228°
2026-04-26 02:41 -4.32650 -45.97104 29884 ft 363 kts 228°
2026-04-26 02:41 -4.34238 -45.99030 29605 ft 359 kts 228°
2026-04-26 02:41 -4.35839 -46.00967 29448 ft 358 kts 228°
2026-04-26 02:41 -4.37432 -46.02896 29217 ft 358 kts 228°
2026-04-26 02:42 -4.39028 -46.04828 28985 ft 363 kts 228°
2026-04-26 02:42 -4.40677 -46.06822 28751 ft 380 kts 229°
2026-04-26 02:42 -4.42381 -46.08888 28448 ft 384 kts 229°
2026-04-26 02:42 -4.44076 -46.10943 28149 ft 383 kts 229°
2026-04-26 02:43 -4.47466 -46.15055 27632 ft 379 kts 228°
2026-04-26 02:43 -4.49140 -46.17088 27406 ft 370 kts 228°
2026-04-26 02:43 -4.50765 -46.19057 27186 ft 362 kts 229°
2026-04-26 02:44 -4.52349 -46.20978 26962 ft 355 kts 228°
2026-04-26 02:44 -4.53895 -46.22855 26738 ft 347 kts 228°
2026-04-26 02:44 -4.55417 -46.24698 26517 ft 340 kts 228°
2026-04-26 02:44 -4.56719 -46.26669 26273 ft 335 kts 248°
2026-04-26 02:45 -4.57208 -46.28906 26055 ft 328 kts 269°
2026-04-26 02:45 -4.57161 -46.31190 25841 ft 328 kts 275°
2026-04-26 02:45 -4.56994 -46.33452 25625 ft 329 kts 276°
2026-04-26 02:45 -4.56801 -46.35725 25407 ft 328 kts 276°
2026-04-26 02:46 -4.56600 -46.38009 25185 ft 327 kts 276°
2026-04-26 02:46 -4.56402 -46.40268 24966 ft 325 kts 276°
2026-04-26 02:46 -4.56316 -46.41255 24869 ft 324 kts 276°
2026-04-26 02:47 -4.56088 -46.43824 24618 ft 322 kts 276°
2026-04-26 02:47 -4.55889 -46.46019 24397 ft 320 kts 276°
2026-04-26 02:47 -4.55683 -46.48254 24177 ft 318 kts 276°
2026-04-26 02:48 -4.55483 -46.50455 23958 ft 317 kts 276°
2026-04-26 02:48 -4.55280 -46.52646 23728 ft 315 kts 276°
2026-04-26 02:48 -4.55078 -46.54827 23506 ft 318 kts 276°
2026-04-26 02:48 -4.54859 -46.57118 23298 ft 344 kts 276°
2026-04-26 02:49 -4.54615 -46.59581 23085 ft 369 kts 276°
2026-04-26 02:49 -4.54347 -46.62230 22879 ft 393 kts 276°
2026-04-26 02:49 -4.54056 -46.65036 22670 ft 413 kts 276°
2026-04-26 02:49 -4.53756 -46.67930 22453 ft 418 kts 276°
2026-04-26 02:50 -4.53459 -46.70799 22243 ft 419 kts 276°
2026-04-26 02:50 -4.53158 -46.73711 22039 ft 418 kts 276°
2026-04-26 02:50 -4.52852 -46.76617 21834 ft 417 kts 276°
2026-04-26 02:50 -4.52515 -46.79487 21624 ft 415 kts 281°
2026-04-26 02:51 -4.51680 -46.82192 21421 ft 412 kts 293°
2026-04-26 02:51 -4.50524 -46.84825 21218 ft 411 kts 296°
2026-04-26 02:51 -4.49322 -46.87413 20994 ft 410 kts 296°
2026-04-26 02:51 -4.48133 -46.89964 20739 ft 400 kts 296°
2026-04-26 02:52 -4.46962 -46.92468 20485 ft 391 kts 296°
2026-04-26 02:52 -4.45822 -46.94910 20234 ft 383 kts 296°
2026-04-26 02:52 -4.44710 -46.97301 19982 ft 375 kts 296°
2026-04-26 02:52 -4.43624 -46.99634 19729 ft 368 kts 296°
2026-04-26 02:53 -4.42549 -47.01948 19474 ft 361 kts 296°
2026-04-26 02:53 -4.41955 -47.03225 19329 ft 357 kts 296°
2026-04-26 02:53 -4.41829 -47.03497 19265 ft 357 kts 296°
2026-04-26 02:53 -4.40809 -47.05716 19012 ft 350 kts 296°
2026-04-26 02:54 -4.39816 -47.07928 18754 ft 345 kts 293°
2026-04-26 02:54 -4.39331 -47.10242 18485 ft 341 kts 270°
2026-04-26 02:54 -4.39656 -47.12561 18240 ft 335 kts 256°
2026-04-26 02:54 -4.40259 -47.14800 17994 ft 330 kts 254°
2026-04-26 02:55 -4.40904 -47.16992 17745 ft 325 kts 253°
2026-04-26 02:55 -4.41541 -47.19136 17502 ft 320 kts 253°
2026-04-26 02:55 -4.42178 -47.21274 17248 ft 316 kts 253°
2026-04-26 02:55 -4.42796 -47.23364 16987 ft 311 kts 253°
2026-04-26 02:56 -4.43397 -47.25418 16734 ft 307 kts 253°
2026-04-26 02:56 -4.43991 -47.27460 16474 ft 304 kts 253°
2026-04-26 02:56 -4.44576 -47.29493 16215 ft 300 kts 253°
2026-04-26 02:56 -4.45146 -47.31481 15953 ft 296 kts 253°
2026-04-26 02:57 -4.45808 -47.33402 15686 ft 292 kts 239°
2026-04-26 02:57 -4.46955 -47.35044 15434 ft 287 kts 229°
2026-04-26 02:57 -4.48256 -47.36572 15174 ft 286 kts 226°
2026-04-26 02:57 -4.49580 -47.38070 14913 ft 285 kts 226°
2026-04-26 02:58 -4.50883 -47.39532 14657 ft 284 kts 226°
2026-04-26 02:58 -4.52208 -47.41017 14398 ft 283 kts 226°
2026-04-26 02:58 -4.53519 -47.42480 14142 ft 282 kts 226°
2026-04-26 02:58 -4.54829 -47.43941 13881 ft 280 kts 226°
2026-04-26 02:59 -4.56224 -47.45311 13611 ft 283 kts 210°
2026-04-26 02:59 -4.57594 -47.45949 13418 ft 284 kts 193°
2026-04-26 02:59 -4.58757 -47.46236 13262 ft 284 kts 188°
2026-04-26 02:59 -4.60694 -47.46587 13004 ft 284 kts 186°
2026-04-26 03:00 -4.62642 -47.46898 12744 ft 283 kts 186°
2026-04-26 03:00 -4.64607 -47.47201 12482 ft 281 kts 186°
2026-04-26 03:00 -4.66548 -47.47498 12222 ft 280 kts 186°
2026-04-26 03:00 -4.68464 -47.47790 11966 ft 279 kts 186°
2026-04-26 03:01 -4.70381 -47.48083 11707 ft 278 kts 186°
2026-04-26 03:01 -4.72297 -47.48370 11444 ft 276 kts 186°
2026-04-26 03:01 -4.74200 -47.48656 11183 ft 275 kts 186°
2026-04-26 03:01 -4.76100 -47.48937 10920 ft 272 kts 186°
2026-04-26 03:02 -4.77986 -47.49218 10657 ft 269 kts 186°
2026-04-26 03:02 -4.79822 -47.49491 10393 ft 265 kts 186°
2026-04-26 03:02 -4.81638 -47.49759 10128 ft 261 kts 186°
2026-04-26 03:02 -4.83431 -47.50019 9862 ft 258 kts 186°
2026-04-26 03:03 -4.85222 -47.50280 9599 ft 257 kts 186°
2026-04-26 03:03 -4.86993 -47.50533 9338 ft 256 kts 186°
2026-04-26 03:03 -4.88753 -47.50783 9081 ft 255 kts 186°
2026-04-26 03:03 -4.90513 -47.51034 8818 ft 254 kts 186°
2026-04-26 03:04 -4.92267 -47.51278 8558 ft 253 kts 186°
2026-04-26 03:04 -4.94013 -47.51525 8294 ft 252 kts 186°
2026-04-26 03:04 -4.95732 -47.51771 8029 ft 251 kts 186°
2026-04-26 03:04 -4.97461 -47.52021 7770 ft 250 kts 186°
2026-04-26 03:05 -4.99200 -47.52219 7503 ft 247 kts 177°
2026-04-26 03:05 -5.00920 -47.52065 7237 ft 244 kts 169°
2026-04-26 03:05 -5.02594 -47.51794 6973 ft 244 kts 168°
2026-04-26 03:05 -5.04269 -47.51522 6711 ft 244 kts 168°
2026-04-26 03:06 -5.05945 -47.51267 6449 ft 243 kts 169°
2026-04-26 03:06 -5.07632 -47.51025 6183 ft 242 kts 169°
2026-04-26 03:06 -5.09307 -47.50794 5916 ft 241 kts 170°
2026-04-26 03:06 -5.10964 -47.50570 5651 ft 240 kts 170°
2026-04-26 03:07 -5.12643 -47.50349 5385 ft 239 kts 170°
2026-04-26 03:07 -5.14282 -47.50135 5124 ft 238 kts 170°
2026-04-26 03:07 -5.15928 -47.49920 4857 ft 237 kts 171°
2026-04-26 03:07 -5.17582 -47.49706 4589 ft 236 kts 170°
2026-04-26 03:08 -5.19198 -47.49496 4326 ft 234 kts 170°
2026-04-26 03:08 -5.20813 -47.49285 4059 ft 234 kts 171°
2026-04-26 03:08 -5.22432 -47.49081 3794 ft 233 kts 170°
2026-04-26 03:08 -5.24053 -47.48872 3527 ft 233 kts 169°
2026-04-26 03:09 -5.25594 -47.48391 3236 ft 228 kts 145°
2026-04-26 03:09 -5.26896 -47.47504 2984 ft 227 kts 145°
2026-04-26 03:09 -5.28235 -47.46673 2719 ft 226 kts 146°
2026-04-26 03:09 -5.29606 -47.45849 2449 ft 226 kts 147°
2026-04-26 03:10 -5.29897 -47.45674 2391 ft 226 kts 147°
2026-04-26 03:10 -5.30678 -47.45208 2235 ft 226 kts 147°
2026-04-26 03:10 -5.32031 -47.44407 2053 ft 225 kts 147°
2026-04-26 03:10 -5.33403 -47.43595 2027 ft 221 kts 147°
2026-04-26 03:11 -5.34676 -47.42842 2006 ft 207 kts 147°
2026-04-26 03:11 -5.35921 -47.42107 2006 ft 203 kts 147°
2026-04-26 03:11 -5.37136 -47.41388 2013 ft 203 kts 147°
2026-04-26 03:11 -5.38351 -47.40668 2096 ft 203 kts 147°
2026-04-26 03:12 -5.39580 -47.39934 2044 ft 203 kts 147°
2026-04-26 03:12 -5.40806 -47.39257 2012 ft 204 kts 157°
2026-04-26 03:12 -5.42226 -47.39272 1984 ft 209 kts 201°
2026-04-26 03:12 -5.43456 -47.40070 2011 ft 212 kts 216°
2026-04-26 03:13 -5.44628 -47.40984 2005 ft 212 kts 217°
2026-04-26 03:13 -5.45813 -47.41872 1998 ft 212 kts 214°
2026-04-26 03:13 -5.47035 -47.42736 1997 ft 212 kts 213°
2026-04-26 03:13 -5.48261 -47.43570 1995 ft 212 kts 212°
2026-04-26 03:14 -5.49482 -47.44384 1995 ft 212 kts 212°
2026-04-26 03:14 -5.50718 -47.45200 1991 ft 212 kts 212°
2026-04-26 03:14 -5.51847 -47.46160 1972 ft 213 kts 235°
2026-04-26 03:14 -5.52204 -47.47588 1983 ft 213 kts 275°
2026-04-26 03:15 -5.51693 -47.48950 1984 ft 211 kts 308°
2026-04-26 03:15 -5.50534 -47.49824 1981 ft 207 kts 341°
2026-04-26 03:15 -5.49138 -47.49943 1979 ft 203 kts 13°
2026-04-26 03:15 -5.47814 -47.49427 1995 ft 201 kts 30°
2026-04-26 03:16 -5.46822 -47.48484 1980 ft 199 kts 60°
2026-04-26 03:16 -5.46340 -47.47347 2000 ft 198 kts 69°